Location: Beutels
(47.8767°N, 9.8584°E)
Time: 06:47:36
(UTC+00:00)

Cosmos 2181 Rocket - Pass Details

Date: 19 May 2025
Orbit: 952 x 1013 km, 82.9° (Epoch: 14 June)

Event Time Altitude Azimuth Distance (km) Brightness Sun altitude
Exits shadow 20:58:42 18° 174° (S) 2,186 5.3 -15.4°
Maximum altitude 21:03:25 69° 94° (E) 1,055 4.0 -15.8°
Drops below altitude 10° 21:09:45 10° 13° (NNE) 2,781 7.0 -16.4°
Sets 21:12:19 0° 11° (NNE) 3,742 7.8 -16.6°
